User: anonymous   Login
Location: Unspecified
(0.0000°N, 0.0000°E)
Time: 14:45:45
(UTC+00:00)
Language:

CERISE - Orbit

View from above orbital plane
View from above orbital plane
View from above satellite
View from above satellite

Ground track
Ground track

The orbit data is extracted from the following two-line orbital elements,

1 23606U 95033B   17206.25533966 +.00000652 +00000-0 +66664-4 0  9997
2 23606 098.2555 149.1911 0005158 170.1637 189.9684 14.94268016192090
Epoch (UTC): 25 July 2017 06:07:41
Eccentricity: 0.0005158
inclination: 98.2555°
perigee height: 581 km
apogee height: 588 km
right ascension of ascending node: 149.1911°
argument of perigee: 170.1637°
revolutions per day: 14.94268016
mean anomaly at epoch: 189.9684°
orbit number at epoch: 19209

The dashed part of the orbit path shows where the satellite is in the earth's shadow,  

DLR